RH
10 9 8 8 7 7 6 5 5 5 6 6 6 6 6 6 6 5 5 5 5 5 5 5 4 4 4 4 4 4 5 6 6 7 7 8 8 9 11 13 14 13 13 15 17 19 21 26 28 30 37 39 44 53 57 61 62 68 75 77 76 76 74 72 75 80 81 82 84 86 86 88 91 89 87 85 83 79 76 74 72 71 67 67 67 65 63 60
11 10 10 9 9 8 8 7 6 5 6 7 7 7 7 6 6 6 5 5 5 5 5 5 4 4 4 4 4 4 4 5 6 7 8 7 7 9 11 13 14 12 12 13 14 16 18 22 25 29 38 40 42 49 53 56 60 67 72 73 74 71 68 68 72 78 80 80 82 84 86 88 90 89 87 85 85 80 77 76 72 72 68 66 66 65 64 62
13 13 12 11 10 10 9 9 7 6 6 7 7 8 7 7 7 6 6 5 5 5 5 5 4 4 4 4 3 4 4 7 10 11 10 9 7 8 11 14 14 13 12 12 13 14 16 18 21 27 36 40 43 49 51 53 59 66 70 71 69 66 64 65 69 76 79 80 81 82 82 86 88 88 86 84 85 82 77 75 70 70 69 67 65 64 64 63
16 16 14 13 13 11 11 10 9 8 7 7 8 8 8 8 7 7 6 5 5 5 4 5 4 4 4 4 4 4 4 9 12 10 10 9 9 8 11 14 14 13 11 11 12 13 15 18 23 28 35 41 43 46 49 50 56 63 67 67 64 62 63 63 67 74 79 78 79 80 80 84 86 84 85 83 83 82 76 73 69 67 69 67 65 63 65 64
18 17 17 16 15 14 13 12 11 10 9 8 8 8 8 8 8 7 6 6 6 5 5 4 4 4 5 4 5 4 4 10 13 8 9 10 10 10 11 14 15 14 11 9 10 11 14 20 26 31 36 41 42 44 47 49 54 59 60 60 59 58 61 64 66 73 79 77 76 79 80 83 85 83 84 82 80 78 74 72 70 69 70 67 64 63 64 63
17 17 17 17 16 16 15 14 13 12 10 9 8 9 9 9 8 8 7 7 6 5 5 4 5 5 5 5 5 5 5 11 13 10 9 9 10 11 12 15 15 15 12 9 8 9 14 18 24 29 33 39 40 43 48 49 54 57 56 54 55 54 57 62 64 71 77 77 75 78 80 81 83 84 83 82 78 75 74 72 69 68 69 69 66 63 62 62
14 15 16 17 17 17 16 15 14 13 12 11 10 9 10 10 10 9 8 8 7 6 5 5 5 5 5 6 5 5 5 8 12 13 11 10 10 11 12 15 16 16 13 10 8 9 13 15 18 22 28 35 38 43 48 49 51 55 55 52 51 50 52 57 61 68 75 76 75 75 80 82 82 82 82 81 78 75 75 75 71 66 65 67 67 65 62 62
12 12 13 15 16 16 17 16 16 15 13 12 11 10 10 10 11 10 9 8 8 6 6 6 6 6 6 6 5 6 6 8 11 13 14 13 11 9 11 13 16 17 15 13 8 8 12 13 15 18 23 29 35 43 47 49 50 50 51 49 46 43 45 52 58 66 74 75 74 72 78 84 81 80 81 81 78 77 77 75 73 68 63 64 65 65 64 63
13 12 12 13 13 14 15 16 16 15 15 13 12 11 10 10 12 11 10 9 8 7 7 7 7 7 6 5 7 9 8 8 12 13 14 14 13 11 10 11 14 16 16 14 10 9 12 13 14 15 19 24 32 42 46 48 50 47 46 44 39 35 37 47 55 62 69 72 72 68 75 84 81 79 81 81 79 78 77 74 73 69 64 63 65 66 64 63
15 15 14 14 13 13 13 14 15 16 15 14 13 11 11 11 12 12 11 10 9 8 7 8 8 8 8 6 9 11 8 8 11 12 13 13 13 12 11 11 12 15 16 15 12 10 12 14 14 16 18 23 31 39 42 44 46 44 41 38 35 31 33 44 53 60 65 69 70 67 72 81 79 77 79 79 78 76 73 72 71 69 65 63 65 65 65 64
15 16 16 15 15 14 13 13 14 15 15 15 13 12 11 10 12 13 13 12 10 9 9 9 10 10 9 9 11 12 9 9 10 10 11 11 11 13 13 10 10 14 16 16 14 10 12 15 16 18 21 26 31 35 38 39 40 39 36 35 31 30 36 44 52 59 61 65 66 64 69 75 76 77 76 74 76 75 72 70 70 68 64 63 64 64 64 64
11 12 13 14 15 15 15 14 13 14 14 14 14 13 12 11 12 13 13 13 12 11 10 10 11 11 11 11 11 11 11 10 11 11 10 10 11 12 14 12 11 13 16 17 16 11 12 15 17 19 23 26 29 31 34 35 36 35 33 32 29 32 40 43 49 57 58 61 61 59 67 73 75 77 74 73 75 76 76 73 70 67 63 63 64 63 63 63
8 9 10 11 12 13 14 14 14 14 13 12 12 12 12 10 12 13 13 13 13 13 12 12 12 12 12 12 9 10 11 10 11 12 10 10 10 10 13 13 13 14 16 19 17 12 12 16 19 23 24 25 26 28 30 32 33 33 31 29 27 33 43 44 48 56 58 59 57 54 62 70 73 73 70 71 74 74 76 74 70 66 63 63 64 63 62 62
8 8 9 9 9 10 10 12 13 13 13 11 10 11 10 10 13 13 13 14 14 14 15 14 14 14 14 12 10 11 12 10 10 9 8 9 9 10 11 11 13 14 17 20 16 13 16 21 24 26 25 23 25 26 27 29 30 29 28 28 26 29 39 44 47 55 58 59 57 52 57 64 67 69 66 68 73 72 73 74 70 66 63 63 63 62 60 60
9 9 10 10 10 9 8 9 10 12 13 12 9 8 8 11 13 13 13 14 15 15 17 16 16 18 18 14 12 13 13 11 10 8 8 8 9 10 10 10 12 14 19 20 16 18 26 28 28 27 26 24 25 25 25 27 29 28 27 28 27 23 31 43 46 51 53 55 56 52 52 55 59 64 64 66 69 69 70 72 71 67 65 64 62 61 60 60
10 11 11 11 11 10 9 8 9 10 11 11 10 8 8 11 12 12 14 15 15 16 17 18 18 20 21 18 15 15 14 12 10 9 8 8 8 9 10 10 13 15 19 18 18 27 33 31 29 28 26 26 26 24 24 26 28 29 26 27 27 22 29 42 46 46 47 51 55 52 51 53 54 59 61 63 66 67 68 70 72 69 66 64 62 62 62 61
11 12 12 12 11 11 10 9 8 8 8 10 11 11 11 11 10 12 14 14 15 16 18 20 20 20 21 19 19 18 16 13 11 9 9 8 7 8 9 12 14 16 17 15 21 31 33 31 30 29 29 27 26 24 25 27 26 27 26 24 26 24 25 34 40 46 50 53 53 51 51 52 55 57 58 61 64 65 66 68 71 70 66 64 63 62 62 62
11 11 12 12 11 11 10 8 8 7 7 10 13 13 13 12 11 12 13 15 17 19 23 24 24 23 22 21 23 22 18 14 11 10 10 8 8 9 9 13 17 17 17 17 23 31 31 30 30 31 30 27 25 25 26 26 23 24 25 23 25 24 23 27 33 41 48 51 50 51 51 49 53 57 59 60 63 65 66 66 69 69 67 66 64 63 62 62
10 11 11 11 11 12 10 8 7 7 8 11 13 15 15 15 14 13 14 16 19 23 28 28 25 25 25 24 24 21 17 14 13 13 12 9 9 10 10 14 18 19 18 20 24 29 29 29 30 31 30 28 26 26 25 24 22 22 23 22 24 24 23 24 25 32 40 43 46 49 49 46 49 54 56 58 62 65 68 67 68 69 69 68 66 64 63 61
12 12 11 11 11 11 10 8 6 6 9 11 12 14 17 19 20 19 16 16 19 21 25 26 23 25 27 25 22 21 18 16 15 14 14 12 10 11 12 14 18 20 20 21 24 26 27 30 31 29 28 28 27 26 26 24 22 21 20 21 22 23 24 24 23 28 35 38 41 43 43 42 43 47 50 55 60 64 67 67 68 69 70 69 67 65 63 61
14 14 13 12 11 10 10 8 6 8 10 12 13 15 20 23 25 24 19 17 19 19 22 24 22 25 28 24 22 22 20 19 17 16 15 14 13 13 13 15 19 22 20 19 21 24 27 30 28 25 26 27 27 28 27 25 23 22 20 20 20 20 23 24 23 24 29 36 38 39 40 39 39 42 44 49 56 61 64 67 68 69 69 69 67 64 63 63
16 16 16 14 12 11 9 8 9 10 12 14 16 18 20 23 24 24 22 19 19 17 22 27 24 26 29 25 24 23 22 21 18 17 16 15 15 14 15 18 21 22 21 19 21 25 28 28 25 24 26 26 26 27 26 26 25 22 21 20 19 18 19 21 21 19 22 29 31 32 36 37 37 41 42 44 50 57 62 65 65 64 66 67 66 63 62 63
18 18 18 17 15 12 9 9 10 11 13 16 18 20 20 21 21 23 21 20 19 17 20 27 27 26 28 26 25 24 23 22 19 18 17 16 16 16 18 21 22 21 20 20 23 28 30 27 23 23 25 25 25 25 25 26 25 23 22 20 19 18 18 19 20 18 18 23 24 27 35 38 38 42 45 44 46 54 59 63 65 62 62 64 63 62 60 61
19 19 18 18 17 14 10 9 11 13 15 16 18 21 21 21 20 21 20 18 19 17 17 24 26 24 26 26 24 22 22 21 19 19 18 17 17 17 19 23 24 23 21 21 24 29 29 24 22 24 25 25 25 24 24 24 24 23 21 19 19 19 18 19 20 19 18 21 24 27 37 42 39 39 43 44 45 52 57 61 63 61 61 63 63 61 59 61
20 19 19 19 19 16 11 8 11 13 15 16 19 23 23 22 22 21 21 20 22 20 16 20 22 21 22 23 22 21 20 20 20 20 20 18 18 18 19 22 24 25 23 22 24 27 25 20 19 22 23 23 24 23 23 23 23 22 19 18 19 20 19 19 20 20 21 26 28 29 39 45 42 42 43 43 46 53 57 58 58 58 60 62 62 62 59 62
20 20 19 19 19 17 11 9 11 12 14 18 20 21 21 21 22 22 23 26 26 22 17 17 19 20 21 20 20 20 19 19 20 20 20 20 20 20 21 22 24 25 25 23 23 23 20 18 17 19 20 21 22 21 21 22 24 23 19 17 19 21 20 20 21 22 24 31 30 26 36 47 46 47 46 43 47 52 54 56 56 56 58 60 61 61 60 62
21 19 20 20 19 18 13 11 13 12 15 18 17 17 17 20 23 23 28 35 33 24 19 18 19 19 20 20 19 19 20 20 21 21 21 21 20 21 23 25 24 23 23 24 26 22 17 19 20 19 20 21 21 20 18 20 23 21 18 18 20 22 22 21 22 23 24 30 30 26 34 46 45 44 44 45 49 52 53 53 54 54 55 58 59 59 60 60
20 20 21 21 20 18 15 13 14 13 14 15 14 14 16 20 22 25 33 40 35 26 21 20 18 18 19 18 17 19 20 20 22 24 23 22 21 21 22 25 26 24 19 22 27 23 18 20 22 21 21 21 20 18 17 19 20 17 17 20 20 20 24 23 22 26 27 29 34 31 33 42 44 41 42 46 50 51 50 49 49 51 54 57 56 53 55 59
20 20 21 23 21 18 16 15 14 14 13 13 13 14 16 20 24 31 38 38 34 27 24 22 21 19 17 15 15 18 19 20 22 23 23 22 21 21 21 23 26 25 20 20 24 22 19 19 20 21 22 20 19 19 19 20 18 15 16 21 21 21 25 26 26 29 28 28 31 30 30 35 39 41 44 46 47 46 43 43 45 49 54 55 50 47 50 55
21 21 22 25 24 20 18 17 15 15 13 13 14 16 20 27 35 42 42 37 33 30 27 26 24 21 16 14 16 18 19 20 21 22 22 22 21 19 19 20 23 26 24 23 24 23 21 18 19 20 21 20 19 20 20 19 18 16 17 20 22 25 27 30 34 33 29 30 31 29 28 27 26 33 41 41 39 38 37 38 43 49 54 51 44 42 45 50
24 24 25 30 30 23 20 19 17 17 16 15 16 19 26 34 41 46 43 37 37 35 31 29 28 24 19 17 19 19 19 21 21 21 21 21 21 19 19 20 23 28 30 28 26 24 23 22 21 20 21 20 19 20 21 20 19 18 20 21 22 26 28 29 34 32 29 34 35 31 28 23 20 25 33 34 33 33 35 35 38 44 49 48 42 40 42 48
27 28 30 35 35 28 23 21 20 19 18 17 21 28 35 39 40 44 44 41 41 39 34 32 29 26 24 22 22 21 19 20 19 20 20 21 21 20 20 21 22 28 31 29 27 26 25 25 23 21 21 20 19 21 22 21 20 19 23 25 23 27 28 27 31 31 30 33 31 29 28 24 24 23 26 31 32 32 34 33 34 39 45 47 45 41 41 46
30 33 35 37 38 33 26 22 22 22 22 22 28 36 41 43 41 41 43 43 42 40 37 34 31 28 27 26 25 24 22 22 20 20 22 22 23 22 21 21 21 26 30 29 28 27 26 25 24 21 22 21 20 22 23 22 22 19 22 25 24 27 27 28 33 31 29 30 28 28 27 24 27 27 26 30 31 30 30 30 31 34 39 43 44 40 38 42
30 34 37 36 37 35 29 25 25 27 26 26 33 38 38 43 43 39 39 42 42 42 39 37 34 32 30 28 28 27 26 26 23 22 23 23 25 25 23 22 22 25 28 28 28 29 27 26 25 22 22 22 21 22 22 23 22 21 22 22 23 27 26 27 31 28 25 27 28 28 25 25 33 35 31 28 28 30 31 31 32 32 32 35 37 38 38 40
31 36 38 36 37 38 36 32 31 30 27 24 31 37 36 41 43 38 37 41 43 42 39 38 37 35 34 32 31 29 27 28 26 24 25 25 26 27 24 23 23 24 26 27 27 28 28 27 25 22 21 22 23 22 22 23 23 22 22 21 21 24 25 26 27 27 23 25 29 28 25 29 35 34 32 31 29 29 30 33 34 34 33 34 34 35 37 40
34 39 40 40 40 42 42 40 34 30 28 26 34 41 38 37 41 39 37 39 44 43 40 40 39 38 36 35 33 30 27 27 27 26 28 27 28 28 25 24 24 23 25 25 24 26 27 27 25 23 22 22 23 23 23 22 24 24 22 21 21 20 24 24 23 26 26 25 27 28 29 34 33 31 34 36 34 31 29 30 30 32 33 35 36 35 34 35
37 41 42 42 41 41 42 41 37 33 29 28 36 42 40 36 37 39 39 38 40 41 41 43 43 40 37 35 34 32 29 29 28 29 30 29 29 29 27 26 25 24 25 25 24 23 26 26 25 25 24 24 24 23 23 22 24 25 22 21 20 19 23 24 24 28 31 28 25 29 38 45 46 47 45 40 38 36 32 30 29 28 30 30 32 34 33 31
37 40 41 40 40 40 41 41 41 38 34 35 40 42 39 38 35 35 40 41 38 39 42 44 44 41 38 37 35 32 30 30 30 31 32 32 31 30 29 29 27 26 26 25 25 25 24 25 26 26 25 26 26 24 26 26 24 24 23 22 23 23 24 24 24 26 29 30 27 27 41 51 53 56 53 48 46 42 35 32 30 28 27 28 28 28 30 31
39 41 41 40 40 40 41 43 43 42 41 45 49 46 42 43 40 37 40 42 40 40 43 45 44 41 39 37 37 33 31 31 31 31 32 33 33 32 30 30 29 27 26 25 27 28 26 26 29 29 27 28 29 29 32 31 27 25 25 26 25 26 24 23 25 25 26 33 31 28 39 48 48 48 49 53 55 48 40 35 31 29 27 27 28 26 26 29
38 41 41 41 40 40 40 42 43 45 49 51 53 52 48 47 46 44 42 43 43 44 46 45 43 41 40 37 36 34 33 33 31 30 31 32 32 32 30 30 30 29 28 26 26 29 30 29 31 32 30 30 34 35 34 33 30 28 29 29 27 28 27 23 25 25 25 32 34 36 43 44 42 40 41 49 55 51 46 41 36 32 28 29 31 28 26 26
36 39 40 40 41 40 38 38 40 44 48 48 50 53 54 51 48 47 44 43 45 46 46 45 42 41 41 39 37 36 34 34 33 32 33 33 33 33 31 30 31 30 30 29 27 29 31 31 32 34 32 33 37 37 33 32 32 30 31 32 30 30 31 30 30 29 28 30 32 38 43 41 39 36 36 45 52 51 51 48 43 38 34 33 34 32 29 26
35 38 39 38 40 39 36 38 41 40 38 38 39 42 47 46 45 45 44 44 47 46 46 47 45 45 44 42 41 39 37 38 37 36 36 35 34 34 33 31 31 30 30 31 29 28 31 32 34 36 35 34 36 35 33 32 31 30 31 30 31 31 31 34 37 33 32 33 33 36 39 38 36 32 35 45 50 53 55 53 51 46 41 39 36 34 34 31
35 37 38 38 38 36 34 38 41 37 34 34 33 32 35 36 38 39 39 40 44 45 46 48 48 49 49 47 45 41 40 42 42 41 40 40 37 35 34 32 30 30 31 32 30 28 31 34 35 37 39 36 34 33 33 31 29 30 32 30 30 31 30 32 35 35 37 37 36 39 39 38 34 30 36 45 49 56 60 56 54 52 47 45 40 36 36 35
35 36 36 36 36 34 34 38 39 37 36 35 33 32 31 30 32 33 33 35 36 39 42 46 48 50 50 48 47 44 42 43 46 44 43 44 41 38 37 34 33 33 32 33 32 29 30 35 38 41 43 39 39 40 37 32 31 32 32 31 31 31 31 32 34 39 44 40 35 38 41 39 32 30 39 47 50 59 62 57 56 56 53 51 48 43 39 36
31 33 31 31 30 29 31 34 35 36 35 34 33 33 32 31 31 32 33 32 32 34 37 40 43 45 45 44 43 42 42 44 47 47 46 45 42 38 37 36 35 35 34 32 31 28 29 34 38 44 48 45 45 50 46 38 35 34 33 32 32 32 32 33 35 41 44 40 35 37 41 38 30 31 42 47 49 58 63 60 58 58 60 60 56 53 48 42
28 30 30 29 26 25 27 29 30 32 33 33 33 32 32 33 32 32 33 33 32 33 34 35 37 38 40 41 43 43 43 44 46 48 47 44 41 37 35 35 34 33 32 30 27 28 32 32 35 44 52 51 49 51 49 44 40 37 35 33 32 33 34 34 37 40 40 37 37 40 39 34 31 36 43 45 46 54 61 62 61 60 63 65 62 59 57 53
27 30 31 30 27 27 28 26 26 28 30 31 31 31 31 32 31 31 32 32 33 34 34 34 35 36 36 38 42 44 46 46 45 46 46 42 41 38 32 31 30 28 27 25 23 28 31 29 30 38 46 50 50 49 47 46 43 39 37 34 33 35 36 35 36 38 37 38 40 42 38 34 37 40 42 44 47 51 55 60 62 60 61 66 67 63 60 59
25 28 28 29 28 29 30 27 27 29 30 30 32 31 30 30 30 29 29 30 31 32 35 36 35 36 37 36 39 42 45 47 46 45 44 41 41 39 32 29 27 23 24 24 22 26 30 28 27 29 33 40 45 45 44 45 44 42 39 37 34 34 36 37 36 35 37 39 40 37 34 37 44 44 42 44 48 51 53 58 61 61 60 64 69 67 63 62
24 26 26 25 26 26 28 28 28 28 29 33 35 32 29 30 29 27 28 30 30 30 33 35 34 37 38 37 38 40 40 42 43 42 39 36 37 36 33 32 28 23 24 26 24 25 29 31 29 26 27 31 37 42 43 42 42 43 42 41 38 36 35 36 36 36 36 38 39 37 36 42 48 48 44 45 48 51 54 57 62 65 63 65 70 70 66 65
25 26 25 24 25 25 26 27 28 28 29 32 34 32 30 30 27 27 28 30 30 30 31 33 33 36 37 37 38 37 36 38 38 35 33 33 34 33 33 34 31 28 29 31 29 25 26 31 32 28 26 27 29 34 39 41 42 42 41 41 39 38 37 35 35 36 36 38 41 42 43 48 52 52 50 48 47 51 53 55 62 68 68 70 72 69 67 67
25 26 26 28 29 27 25 26 29 32 31 31 34 33 33 31 28 29 30 29 31 32 31 32 33 35 37 37 34 32 32 33 32 30 28 29 29 30 33 34 32 31 33 33 32 30 29 33 35 33 31 28 26 27 31 35 37 36 38 40 41 42 45 45 43 43 42 43 44 45 47 53 55 56 56 54 51 52 53 52 58 66 72 74 72 69 68 67
26 26 26 30 31 28 26 28 33 34 32 32 34 34 34 33 31 32 33 32 32 33 32 32 33 35 36 34 31 28 28 29 28 26 25 26 28 31 34 34 32 32 33 34 35 36 38 39 39 40 39 35 31 29 27 26 27 33 40 46 49 52 55 56 59 57 52 49 48 47 50 54 54 55 60 59 53 51 50 49 51 58 68 73 72 70 69 67